APL Coral — WDF6832 — position and weather

sailwx.info

Track history (hours):
 
Tides and Currents Weather Stations Pressure Air Temp Water Temp Dewpoint Dewpoint Depression Visibility Wind Speed Wind Dir Waves Ship Positions

APL Coral

Owner: APL Maritime Ltd., Bethesda, MD. More information available from US FCC via Universal Licensing System and Coast Guard Vessel Documentation Center.

Last reported at 2016-Feb-12 00:00 UTC. Time now 2016-Feb-12 07:50 UTC.
Position N 15°54' E 113°24'.

Length 275 m; draft 13 m.

Type: Cargo ship. MMSI: 367478280.

Wind from 140 at 12 knots

Waves 0.5 meters (2 feet), 3 second period

Barometer 1016.0 mb
Air temperature 25.0 ° C
Visibility: greater than 5.4 NM
Dewpoint 22.0 ° C
Water temperature 2.0 ° C

Date/timePositionNaut miles runAvg speedWind from/ knotsBaromVisibWave heightAir tempDewpointWater temp
2016-Feb-12 00:00N 15°54' E 113°24'37618.0 140 / 121016.0 5.4 0.525.022.0 2.0
2016-Feb-11 03:05N 22°06' E 114°24'916.0
2016-Feb-11 02:32N 22°07' E 114°15'1211.5
2016-Feb-11 01:29N 22°16' E 114°07'10 9.8
2016-Feb-11 00:27N 22°21' E 113°57'5 0.2
2016-Feb-10 03:30N 22°21' E 114°02'1110.2
2016-Feb-10 02:26N 22°13' E 114°10'9 8.5
2016-Feb-10 01:26N 22°08' E 114°18'1213.7
2016-Feb-10 00:33N 22°08' E 114°31'12210.0
2016-Feb-09 12:23N 22°30' E 116°41'3412.0
2016-Feb-09 09:31N 22°50' E 117°10'1111.7
2016-Feb-09 08:32N 22°57' E 117°20'3012.0
2016-Feb-09 06:04N 23°16' E 117°45'1716.5
2016-Feb-09 05:03N 23°26' E 117°60'918.9
2016-Feb-09 04:33N 23°31' E 118°08'1918.9
2016-Feb-09 03:33N 23°43' E 118°25'1919.2
2016-Feb-09 02:33N 23°54' E 118°41'1918.9
2016-Feb-09 01:33N 24°06' E 118°57'1818.3
2016-Feb-09 00:33N 24°19' E 119°12'813.6
2016-Feb-09 00:00N 24°24' E 119°18'920.9 290 / 101025.0 5.4 0.515.0 6.917.0
2016-Feb-08 23:33N 24°30' E 119°25'1616.0
2016-Feb-08 22:33N 24°40' E 119°39'1716.3
2016-Feb-08 21:32N 24°49' E 119°54'1716.9
2016-Feb-08 20:33N 25°02' E 120°06'30616.9
2016-Feb-08 02:27N 29°41' E 122°28'1213.1
2016-Feb-08 01:33N 29°47' E 122°16'1110.7
2016-Feb-08 00:33N 29°55' E 122°08'1010.3
2016-Feb-07 23:33N 29°58' E 121°56'5 5.2
2016-Feb-07 22:33N 29°57' E 121°50'0 0.0
2016-Feb-07 19:05N 29°57' E 121°51'0 0.0
2016-Feb-07 09:14N 29°57' E 121°51'0 0.0
2016-Feb-07 08:17N 29°57' E 121°51'0 0.0
2016-Feb-07 07:29N 29°57' E 121°51'0 0.0
2016-Feb-07 05:33N 29°57' E 121°51'7 6.6
2016-Feb-07 04:33N 29°59' E 121°58'1313.2
2016-Feb-07 03:34N 29°53' E 122°11'1211.6
2016-Feb-07 02:33N 29°45' E 122°21'1312.8
2016-Feb-07 01:30N 29°46' E 122°37'0 0.0
2016-Feb-06 17:29N 29°46' E 122°37'0 0.0
2016-Feb-06 15:23N 29°46' E 122°37'0 0.0
2016-Feb-06 13:20N 29°46' E 122°37'0 0.0
2016-Feb-06 09:27N 29°46' E 122°37'0 0.1
2016-Feb-06 08:31N 29°46' E 122°37'0 0.0
2016-Feb-06 07:33N 29°46' E 122°37'0 0.0
2016-Feb-06 06:33N 29°46' E 122°37'0 0.0
2016-Feb-06 05:32N 29°46' E 122°37'0 0.0
2016-Feb-06 04:33N 29°46' E 122°37'0 0.0
2016-Feb-06 03:32N 29°46' E 122°37'0 0.1
2016-Feb-06 02:33N 29°46' E 122°37'0 0.0
2016-Feb-06 01:33N 29°46' E 122°37'0 0.0
2016-Feb-06 00:30N 29°46' E 122°37'0 0.1
2016-Feb-05 23:30N 29°46' E 122°37'0 0.1
2016-Feb-05 22:28N 29°46' E 122°37'0 0.0
2016-Feb-05 21:33N 29°46' E 122°37'0 0.1
2016-Feb-05 20:33N 29°46' E 122°37'0 0.0
2016-Feb-05 19:32N 29°46' E 122°37'0 0.0
2016-Feb-05 18:33N 29°46' E 122°37'0 0.0
2016-Feb-05 17:33N 29°46' E 122°37'0 0.0
2016-Feb-05 16:31N 29°46' E 122°37'0 0.1
2016-Feb-05 15:31N 29°46' E 122°37'0 0.0
2016-Feb-05 14:30N 29°46' E 122°37'0 0.0
2016-Feb-05 13:32N 29°46' E 122°37'0 0.1
2016-Feb-05 12:33N 29°46' E 122°37'0 0.3
2016-Feb-05 11:30N 29°46' E 122°37'9 9.4
2016-Feb-05 10:32N 29°53' E 122°44'3916.3
2016-Feb-05 08:09N 30°29' E 122°60'1118.3
2016-Feb-05 07:33N 30°40' E 122°58'6014.5
2016-Feb-05 03:25N 31°15' E 122°01'1213.0
2016-Feb-05 02:32N 31°17' E 121°48'1111.4
2016-Feb-05 01:33N 31°22' E 121°36'2 1.6
2016-Feb-05 00:34N 31°23' E 121°34'0 0.0
2016-Feb-04 23:31N 31°23' E 121°34'0 0.0
2016-Feb-04 22:31N 31°23' E 121°34'0 0.0
2016-Feb-04 21:13N 31°23' E 121°34'0 0.0
2016-Feb-04 20:28N 31°23' E 121°34'0 0.0
2016-Feb-04 19:28N 31°23' E 121°34'0 0.0
2016-Feb-04 18:28N 31°23' E 121°34'0 0.0
2016-Feb-04 17:28N 31°23' E 121°34'0 0.0
2016-Feb-04 16:28N 31°23' E 121°34'0 0.0
2016-Feb-04 15:28N 31°23' E 121°34'0 0.0
2016-Feb-04 14:16N 31°23' E 121°34'1 0.8
2016-Feb-04 13:34N 31°23' E 121°34'7 6.7
2016-Feb-04 12:33N 31°20' E 121°41'10 9.7
2016-Feb-04 11:28N 31°16' E 121°53'8 8.9
2016-Feb-04 10:33N 31°14' E 122°02'  
Track history (hours):
 
Tides and Currents Weather Stations Pressure Air Temp Water Temp Dewpoint Dewpoint Depression Visibility Wind Speed Wind Dir Waves Ship Positions

APL Coral

Owner: APL Maritime Ltd., Bethesda, MD. More information available from US FCC via Universal Licensing System and Coast Guard Vessel Documentation Center.

Last reported at 2016-Feb-12 00:00 UTC. Time now 2016-Feb-12 07:50 UTC.
Position N 15°54' E 113°24'.

Length 275 m; draft 13 m.

Type: Cargo ship. MMSI: 367478280.

Wind from 140 at 12 knots

Waves 0.5 meters (2 feet), 3 second period

Barometer 1016.0 mb
Air temperature 25.0 ° C
Visibility: greater than 5.4 NM
Dewpoint 22.0 ° C
Water temperature 2.0 ° C

Date/timePositionNaut miles runAvg speedWind from/ knotsBaromVisibWave heightAir tempDewpointWater temp
2016-Feb-12 00:00N 15°54' E 113°24'37618.0 140 / 121016.0 5.4 0.525.022.0 2.0
2016-Feb-11 03:05N 22°06' E 114°24'916.0
2016-Feb-11 02:32N 22°07' E 114°15'1211.5
2016-Feb-11 01:29N 22°16' E 114°07'10 9.8
2016-Feb-11 00:27N 22°21' E 113°57'5 0.2
2016-Feb-10 03:30N 22°21' E 114°02'1110.2
2016-Feb-10 02:26N 22°13' E 114°10'9 8.5
2016-Feb-10 01:26N 22°08' E 114°18'1213.7
2016-Feb-10 00:33N 22°08' E 114°31'12210.0
2016-Feb-09 12:23N 22°30' E 116°41'3412.0
2016-Feb-09 09:31N 22°50' E 117°10'1111.7
2016-Feb-09 08:32N 22°57' E 117°20'3012.0
2016-Feb-09 06:04N 23°16' E 117°45'1716.5
2016-Feb-09 05:03N 23°26' E 117°60'918.9
2016-Feb-09 04:33N 23°31' E 118°08'1918.9
2016-Feb-09 03:33N 23°43' E 118°25'1919.2
2016-Feb-09 02:33N 23°54' E 118°41'1918.9
2016-Feb-09 01:33N 24°06' E 118°57'1818.3
2016-Feb-09 00:33N 24°19' E 119°12'813.6
2016-Feb-09 00:00N 24°24' E 119°18'920.9 290 / 101025.0 5.4 0.515.0 6.917.0
2016-Feb-08 23:33N 24°30' E 119°25'1616.0
2016-Feb-08 22:33N 24°40' E 119°39'1716.3
2016-Feb-08 21:32N 24°49' E 119°54'1716.9
2016-Feb-08 20:33N 25°02' E 120°06'30616.9
2016-Feb-08 02:27N 29°41' E 122°28'1213.1
2016-Feb-08 01:33N 29°47' E 122°16'1110.7
2016-Feb-08 00:33N 29°55' E 122°08'1010.3
2016-Feb-07 23:33N 29°58' E 121°56'5 5.2
2016-Feb-07 22:33N 29°57' E 121°50'0 0.0
2016-Feb-07 19:05N 29°57' E 121°51'0 0.0
2016-Feb-07 09:14N 29°57' E 121°51'0 0.0
2016-Feb-07 08:17N 29°57' E 121°51'0 0.0
2016-Feb-07 07:29N 29°57' E 121°51'0 0.0
2016-Feb-07 05:33N 29°57' E 121°51'7 6.6
2016-Feb-07 04:33N 29°59' E 121°58'1313.2
2016-Feb-07 03:34N 29°53' E 122°11'1211.6
2016-Feb-07 02:33N 29°45' E 122°21'1312.8
2016-Feb-07 01:30N 29°46' E 122°37'0 0.0
2016-Feb-06 17:29N 29°46' E 122°37'0 0.0
2016-Feb-06 15:23N 29°46' E 122°37'0 0.0
2016-Feb-06 13:20N 29°46' E 122°37'0 0.0
2016-Feb-06 09:27N 29°46' E 122°37'0 0.1
2016-Feb-06 08:31N 29°46' E 122°37'0 0.0
2016-Feb-06 07:33N 29°46' E 122°37'0 0.0
2016-Feb-06 06:33N 29°46' E 122°37'0 0.0
2016-Feb-06 05:32N 29°46' E 122°37'0 0.0
2016-Feb-06 04:33N 29°46' E 122°37'0 0.0
2016-Feb-06 03:32N 29°46' E 122°37'0 0.1
2016-Feb-06 02:33N 29°46' E 122°37'0 0.0
2016-Feb-06 01:33N 29°46' E 122°37'0 0.0
2016-Feb-06 00:30N 29°46' E 122°37'0 0.1
2016-Feb-05 23:30N 29°46' E 122°37'0 0.1
2016-Feb-05 22:28N 29°46' E 122°37'0 0.0
2016-Feb-05 21:33N 29°46' E 122°37'0 0.1
2016-Feb-05 20:33N 29°46' E 122°37'0 0.0
2016-Feb-05 19:32N 29°46' E 122°37'0 0.0
2016-Feb-05 18:33N 29°46' E 122°37'0 0.0
2016-Feb-05 17:33N 29°46' E 122°37'0 0.0
2016-Feb-05 16:31N 29°46' E 122°37'0 0.1
2016-Feb-05 15:31N 29°46' E 122°37'0 0.0
2016-Feb-05 14:30N 29°46' E 122°37'0 0.0
2016-Feb-05 13:32N 29°46' E 122°37'0 0.1
2016-Feb-05 12:33N 29°46' E 122°37'0 0.3
2016-Feb-05 11:30N 29°46' E 122°37'9 9.4
2016-Feb-05 10:32N 29°53' E 122°44'3916.3
2016-Feb-05 08:09N 30°29' E 122°60'1118.3
2016-Feb-05 07:33N 30°40' E 122°58'6014.5
2016-Feb-05 03:25N 31°15' E 122°01'1213.0
2016-Feb-05 02:32N 31°17' E 121°48'1111.4
2016-Feb-05 01:33N 31°22' E 121°36'2 1.6
2016-Feb-05 00:34N 31°23' E 121°34'0 0.0
2016-Feb-04 23:31N 31°23' E 121°34'0 0.0
2016-Feb-04 22:31N 31°23' E 121°34'0 0.0
2016-Feb-04 21:13N 31°23' E 121°34'0 0.0
2016-Feb-04 20:28N 31°23' E 121°34'0 0.0
2016-Feb-04 19:28N 31°23' E 121°34'0 0.0
2016-Feb-04 18:28N 31°23' E 121°34'0 0.0
2016-Feb-04 17:28N 31°23' E 121°34'0 0.0
2016-Feb-04 16:28N 31°23' E 121°34'0 0.0
2016-Feb-04 15:28N 31°23' E 121°34'0 0.0
2016-Feb-04 14:16N 31°23' E 121°34'1 0.8
2016-Feb-04 13:34N 31°23' E 121°34'7 6.7
2016-Feb-04 12:33N 31°20' E 121°41'10 9.7
2016-Feb-04 11:28N 31°16' E 121°53'8 8.9
2016-Feb-04 10:33N 31°14' E 122°02'  

Dump ship's entire track history